| time (UTC) | temp F | wind direction | speed MPH | gust MPH | rain 1hr in | rain 24hr in | rain mn in | humidity % | barometer mb |
| 20260505034523 | 74 | 183 | 0.0 | 6.0 | 0.00 | 0.05 | 0.04 | 77 | 1006.5 |
| 20260505034031 | 74 | 243 | 1.0 | 6.0 | 0.00 | 0.05 | 0.04 | 77 | 1006.6 |
| 20260505033524 | 74 | 281 | 0.0 | 3.0 | 0.00 | 0.05 | 0.04 | 77 | 1006.7 |
| 20260505033039 | 74 | 245 | 0.0 | 1.0 | 0.00 | 0.05 | 0.04 | 77 | 1006.8 |
| 20260505032524 | 74 | 220 | 0.0 | 1.0 | 0.00 | 0.05 | 0.04 | 77 | 1006.7 |
| 20260505032033 | 74 | 233 | 0.0 | 0.0 | 0.00 | 0.05 | 0.04 | 77 | 1006.7 |
| 20260505031523 | 74 | 233 | 0.0 | 0.0 | 0.00 | 0.05 | 0.04 | 76 | 1006.7 |
| 20260505031036 | 74 | 227 | 0.0 | 1.0 | 0.00 | 0.05 | 0.04 | 76 | 1006.6 |
| 20260505030522 | 74 | 207 | 0.0 | 1.0 | 0.00 | 0.05 | 0.04 | 76 | 1006.7 |
| 20260505030035 | 74 | 171 | 0.0 | 0.0 | 0.00 | 0.05 | 0.04 | 76 | 1006.5 |
| 20260505025521 | 74 | 252 | 0.0 | 0.0 | 0.00 | 0.05 | 0.04 | 76 | 1006.4 |
| 20260505025037 | 74 | 210 | 0.0 | 0.0 | 0.00 | 0.05 | 0.04 | 76 | 1006.3 |
| 20260505024524 | 74 | 227 | 0.0 | 0.0 | 0.00 | 0.05 | 0.04 | 76 | 1006.4 |
| 20260505024029 | 74 | 168 | 0.0 | 5.0 | 0.00 | 0.05 | 0.04 | 75 | 1006.5 |
| 20260505023522 | 74 | 268 | 0.0 | 5.0 | 0.00 | 0.05 | 0.04 | 75 | 1006.5 |
| 20260505023033 | 74 | 243 | 0.0 | 0.0 | 0.00 | 0.05 | 0.04 | 75 | 1006.6 |
| 20260505022522 | 74 | 223 | 0.0 | 0.0 | 0.00 | 0.05 | 0.04 | 75 | 1006.5 |
| 20260505022027 | 75 | 149 | 0.0 | 0.0 | 0.00 | 0.05 | 0.04 | 75 | 1006.4 |
| 20260505021743 | 75 | 233 | 0.0 | 10.0 | 0.00 | 0.05 | 0.04 | 74 | 1006.5 |
| 20260505021629 | 75 | 233 | 0.0 | 10.0 | 0.00 | 0.05 | 0.04 | 74 | 1006.5 |
| 20260505021036 | 75 | 248 | 0.0 | 10.0 | 0.00 | 0.05 | 0.04 | 74 | 1006.4 |
| 20260505020522 | 75 | 161 | 0.0 | 1.0 | 0.00 | 0.06 | 0.04 | 74 | 1006.3 |
| 20260505020033 | 75 | 254 | 0.0 | 1.0 | 0.00 | 0.06 | 0.04 | 73 | 1006.2 |
| 20260505015520 | 75 | 171 | 0.0 | 1.0 | 0.00 | 0.06 | 0.04 | 73 | 1006.2 |
| 20260505015241 | 75 | 190 | 0.0 | 4.0 | 0.00 | 0.06 | 0.04 | 73 | 1006.1 |
| 20260505015129 | 75 | 190 | 0.0 | 4.0 | 0.00 | 0.06 | 0.04 | 73 | 1006.1 |
| 20260505014520 | 75 | 182 | 0.0 | 4.0 | 0.00 | 0.06 | 0.04 | 73 | 1006.2 |
| 20260505014026 | 75 | 196 | 0.0 | 6.0 | 0.00 | 0.06 | 0.04 | 73 | 1006.1 |
| 20260505014003 | 76 | 241 | 1.0 | 6.0 | 0.00 | 0.06 | 0.04 | 73 | 1006.1 |
| 20260505013628 | 76 | 241 | 1.0 | 6.0 | 0.00 | 0.06 | 0.04 | 73 | 1006.1 |
| 20260505013034 | 76 | 257 | 0.0 | 3.0 | 0.00 | 0.06 | 0.04 | 72 | 1006.0 |
| 20260505012519 | 76 | 252 | 0.0 | 3.0 | 0.00 | 0.06 | 0.04 | 72 | 1006.0 |
| 20260505012035 | 76 | 178 | 0.0 | 3.0 | 0.00 | 0.06 | 0.04 | 72 | 1005.8 |
| 20260505011520 | 76 | 186 | 0.0 | 9.0 | 0.00 | 0.06 | 0.04 | 72 | 1005.9 |
| 20260505011026 | 76 | 189 | 1.0 | 9.0 | 0.00 | 0.06 | 0.04 | 71 | 1006.0 |
| 20260505010531 | 76 | 176 | 0.0 | 0.0 | 0.00 | 0.06 | 0.04 | 71 | 1006.0 |
| 20260505010300 | 76 | 175 | 0.0 | 0.0 | 0.00 | 0.06 | 0.04 | 71 | 1005.9 |
| 20260505010143 | 76 | 175 | 0.0 | 0.0 | 0.00 | 0.06 | 0.04 | 71 | 1005.9 |
| 20260505005519 | 76 | 175 | 0.0 | 0.0 | 0.00 | 0.06 | 0.04 | 70 | 1006.0 |
| 20260505005037 | 77 | 185 | 0.0 | 0.0 | 0.00 | 0.06 | 0.04 | 70 | 1005.8 |
| 20260505004519 | 77 | 169 | 0.0 | 0.0 | 0.00 | 0.06 | 0.04 | 69 | 1005.8 |
| 20260505004256 | 77 | 200 | 0.0 | 0.0 | 0.00 | 0.06 | 0.04 | 69 | 1005.7 |
| 20260505004137 | 77 | 200 | 0.0 | 0.0 | 0.00 | 0.06 | 0.04 | 69 | 1005.7 |
| 20260505003740 | 77 | 200 | 0.0 | 0.0 | 0.00 | 0.07 | 0.04 | 68 | 1005.8 |
| 20260505003627 | 77 | 200 | 0.0 | 0.0 | 0.00 | 0.07 | 0.04 | 68 | 1005.8 |
| 20260505003048 | 77 | 247 | 0.0 | 9.0 | 0.00 | 0.07 | 0.04 | 67 | 1005.8 |
| 20260505003030 | 77 | 203 | 0.0 | 9.0 | 0.00 | 0.07 | 0.04 | 68 | 1005.7 |
| 20260505002627 | 77 | 247 | 0.0 | 9.0 | 0.00 | 0.07 | 0.04 | 67 | 1005.8 |
| 20260505002025 | 78 | 169 | 0.0 | 1.0 | 0.00 | 0.07 | 0.04 | 68 | 1005.8 |
| 20260505001517 | 78 | 275 | 0.0 | 1.0 | 0.00 | 0.07 | 0.04 | 68 | 1005.8 |
| 20260505001028 | 78 | 227 | 0.0 | 0.0 | 0.00 | 0.07 | 0.04 | 68 | 1005.9 |
| 20260505000517 | 78 | 237 | 0.0 | 0.0 | 0.00 | 0.07 | 0.04 | 68 | 1006.0 |
| 20260505000251 | 78 | 169 | 0.0 | 1.0 | 0.00 | 0.07 | 0.04 | 67 | 1006.1 |
| 20260505000139 | 78 | 169 | 0.0 | 1.0 | 0.00 | 0.07 | 0.04 | 67 | 1006.1 |
| 20260505000002 | 78 | 169 | 0.0 | 1.0 | 0.00 | 0.07 | 0.04 | 67 | 1006.0 |
| 20260504235626 | 78 | 169 | 0.0 | 1.0 | 0.00 | 0.07 | 0.04 | 67 | 1006.0 |
| 20260504235046 | 78 | 241 | 0.0 | 1.0 | 0.00 | 0.07 | 0.04 | 67 | 1005.9 |
| 20260504234743 | 78 | 221 | 0.0 | 6.0 | 0.00 | 0.07 | 0.04 | 66 | 1005.9 |
| 20260504234624 | 78 | 221 | 0.0 | 6.0 | 0.00 | 0.07 | 0.04 | 66 | 1005.9 |
| 20260504234030 | 78 | 244 | 0.0 | 6.0 | 0.00 | 0.07 | 0.04 | 66 | 1006.1 |
| 20260504233518 | 79 | 178 | 1.0 | 5.0 | 0.00 | 0.07 | 0.04 | 66 | 1006.1 |
| 20260504233044 | 79 | 262 | 0.0 | 0.0 | 0.00 | 0.07 | 0.04 | 65 | 1006.1 |
| 20260504232519 | 79 | 221 | 0.0 | 0.0 | 0.00 | 0.07 | 0.04 | 64 | 1006.1 |
| 20260504232023 | 79 | 193 | 0.0 | 0.0 | 0.00 | 0.07 | 0.04 | 64 | 1006.2 |
| 20260504231515 | 79 | 234 | 0.0 | 1.0 | 0.00 | 0.07 | 0.04 | 64 | 1006.3 |
| 20260504231017 | 79 | 235 | 0.0 | 3.0 | 0.00 | 0.07 | 0.04 | 63 | 1006.2 |
| 20260504230517 | 80 | 310 | 0.0 | 3.0 | 0.00 | 0.07 | 0.04 | 63 | 1006.3 |
| 20260504230028 | 80 | 269 | 1.0 | 3.0 | 0.00 | 0.08 | 0.04 | 62 | 1006.4 |
| 20260504225737 | 80 | 199 | 0.0 | 0.0 | 0.00 | 0.08 | 0.04 | 62 | 1006.3 |
| 20260504225622 | 80 | 199 | 0.0 | 0.0 | 0.00 | 0.08 | 0.04 | 62 | 1006.3 |
| 20260504225251 | 80 | 161 | 0.0 | 0.0 | 0.00 | 0.08 | 0.04 | 61 | 1006.3 |
| 20260504225131 | 80 | 161 | 0.0 | 0.0 | 0.00 | 0.08 | 0.04 | 61 | 1006.3 |
| 20260504224517 | 80 | 240 | 0.0 | 0.0 | 0.00 | 0.08 | 0.04 | 61 | 1006.4 |
| 20260504224021 | 80 | 171 | 0.0 | 4.0 | 0.00 | 0.08 | 0.04 | 60 | 1006.5 |
| 20260504223516 | 81 | 272 | 0.0 | 4.0 | 0.00 | 0.08 | 0.04 | 60 | 1006.5 |
| 20260504223024 | 81 | 162 | 0.0 | 4.0 | 0.00 | 0.08 | 0.04 | 59 | 1006.5 |
| 20260504222516 | 81 | 171 | 0.0 | 0.0 | 0.00 | 0.08 | 0.04 | 59 | 1006.6 |
| 20260504222240 | 81 | 162 | 0.0 | 0.0 | 0.00 | 0.08 | 0.04 | 59 | 1006.7 |
| 20260504222124 | 81 | 162 | 0.0 | 0.0 | 0.00 | 0.08 | 0.04 | 59 | 1006.7 |
| 20260504221515 | 81 | 159 | 0.0 | 0.0 | 0.00 | 0.08 | 0.04 | 58 | 1006.8 |
| 20260504221029 | 81 | 196 | 0.0 | 0.0 | 0.00 | 0.08 | 0.04 | 57 | 1006.7 |
| 20260504220516 | 81 | 161 | 0.0 | 3.0 | 0.00 | 0.08 | 0.04 | 57 | 1006.8 |
| 20260504220018 | 82 | 313 | 0.0 | 3.0 | 0.00 | 0.09 | 0.04 | 57 | 1006.8 |
| 20260504215517 | 82 | 216 | 0.0 | 0.0 | 0.00 | 0.09 | 0.04 | 56 | 1006.8 |
| 20260504215017 | 82 | 258 | 0.0 | 0.0 | 0.00 | 0.09 | 0.04 | 56 | 1006.8 |
| 20260504214515 | 0 | 0.0 | 0.0 | 0.00 | 0.09 | 0.04 | 1007.0 | ||
| 20260504214017 | 83 | 281 | 0.0 | 0.0 | 0.00 | 0.09 | 0.04 | 56 | 1006.8 |
| 20260504213515 | 82 | 285 | 0.0 | 0.0 | 0.00 | 0.09 | 0.04 | 56 | 1006.9 |
| 20260504213016 | 83 | 166 | 0.0 | 3.0 | 0.00 | 0.09 | 0.04 | 54 | 1007.0 |
| 20260504212515 | 83 | 162 | 1.0 | 3.0 | 0.00 | 0.09 | 0.04 | 54 | 1007.0 |
| 20260504212014 | 0 | 0.0 | 0.0 | 0.00 | 0.09 | 0.04 | 1007.2 | ||
| 20260504211514 | 0 | 0.0 | 0.0 | 0.00 | 0.09 | 0.04 | 1007.2 | ||
| 20260504211013 | 0 | 0.0 | 0.0 | 0.00 | 0.09 | 0.04 | 1007.3 | ||
| 20260504210513 | 0 | 0.0 | 0.0 | 0.00 | 0.09 | 0.04 | 1007.4 | ||
| 20260504210013 | 83 | 226 | 0.0 | 0.0 | 0.00 | 0.09 | 0.04 | 54 | 1007.3 |
| 20260504205512 | 83 | 195 | 0.0 | 0.0 | 0.00 | 0.09 | 0.04 | 55 | 1007.3 |
| 20260504205011 | 83 | 244 | 0.0 | 0.0 | 0.00 | 0.09 | 0.04 | 55 | 1007.7 |
| 20260504204509 | 83 | 274 | 0.0 | 0.0 | 0.00 | 0.09 | 0.04 | 53 | 1007.8 |
| 20260504204012 | 83 | 288 | 0.0 | 0.0 | 0.00 | 0.10 | 0.04 | 55 | 1007.7 |
| 20260504203950 | 84 | 241 | 0.0 | 0.0 | 0.00 | 0.10 | 0.04 | 52 | 1007.8 |
| 20260504203618 | 84 | 241 | 0.0 | 0.0 | 0.00 | 0.10 | 0.04 | 52 | 1007.8 |
| 20260504203012 | 84 | 202 | 0.0 | 0.0 | 0.00 | 0.10 | 0.04 | 53 | 1007.8 |
| 20260504202508 | 84 | 133 | 0.0 | 2.0 | 0.00 | 0.10 | 0.04 | 54 | 1007.9 |
| 20260504202011 | 84 | 165 | 0.0 | 2.0 | 0.00 | 0.10 | 0.04 | 53 | 1008.1 |
| 20260504201509 | 84 | 271 | 0.0 | 2.0 | 0.00 | 0.10 | 0.04 | 53 | 1008.1 |
| 20260504201236 | 83 | 281 | 0.0 | 0.0 | 0.00 | 0.10 | 0.04 | 54 | 1008.2 |
| 20260504201117 | 83 | 281 | 0.0 | 0.0 | 0.00 | 0.10 | 0.04 | 54 | 1008.2 |
| 20260504200509 | 83 | 248 | 0.0 | 0.0 | 0.00 | 0.10 | 0.04 | 53 | 1008.3 |
| 20260504200024 | 83 | 248 | 0.0 | 0.0 | 0.00 | 0.10 | 0.04 | 53 | 1008.4 |
| 20260504195507 | 83 | 227 | 0.0 | 0.0 | 0.00 | 0.10 | 0.04 | 55 | 1008.5 |
| 20260504195012 | 82 | 186 | 0.0 | 0.0 | 0.00 | 0.11 | 0.04 | 55 | 1008.6 |
| 20260504194505 | 0 | 0.0 | 5.0 | 0.00 | 0.11 | 0.04 | 1008.6 | ||
| 20260504194228 | 82 | 165 | 2.0 | 5.0 | 0.00 | 0.11 | 0.04 | 53 | 1008.8 |
| 20260504194117 | 82 | 165 | 2.0 | 5.0 | 0.00 | 0.11 | 0.04 | 53 | 1008.8 |
| 20260504193507 | 0 | 0.0 | 0.0 | 0.01 | 0.11 | 0.04 | 1008.8 | ||
| 20260504193008 | 83 | 94 | 0.0 | 0.0 | 0.01 | 0.11 | 0.04 | 53 | 1008.8 |
| 20260504192505 | 83 | 158 | 0.0 | 0.0 | 0.01 | 0.11 | 0.04 | 53 | 1008.8 |
| 20260504192007 | 84 | 206 | 0.0 | 0.0 | 0.01 | 0.11 | 0.04 | 53 | 1009.0 |
| 20260504191503 | 0 | 0.0 | 0.0 | 0.01 | 0.11 | 0.04 | 1009.0 | ||
| 20260504191006 | 84 | 283 | 0.0 | 0.0 | 0.01 | 0.11 | 0.04 | 53 | 1009.2 |
| 20260504190506 | 84 | 203 | 0.0 | 0.0 | 0.01 | 0.11 | 0.04 | 52 | 1009.2 |
| 20260504190005 | 0 | 0.0 | 0.0 | 0.01 | 0.12 | 0.04 | 1009.3 | ||
| 20260504185501 | 0 | 0.0 | 0.0 | 0.01 | 0.12 | 0.04 | 1009.4 | ||
| 20260504185001 | 0 | 0.0 | 0.0 | 0.01 | 0.12 | 0.04 | 1009.3 | ||
| 20260504184718 | 83 | 244 | 0.0 | 0.0 | 0.01 | 0.12 | 0.04 | 53 | 1009.3 |
| 20260504184613 | 83 | 244 | 0.0 | 0.0 | 0.01 | 0.12 | 0.04 | 53 | 1009.3 |
| 20260504184001 | 83 | 250 | 0.0 | 0.0 | 0.01 | 0.12 | 0.04 | 53 | 1009.5 |
| 20260504183459 | 0 | 0.0 | 0.0 | 0.00 | 0.11 | 0.03 | 1009.5 | ||
| 20260504183000 | 83 | 186 | 0.0 | 0.0 | 0.00 | 0.11 | 0.03 | 52 | 1009.5 |
| 20260504182456 | 0 | 0.0 | 0.0 | 0.00 | 0.11 | 0.03 | 1009.6 | ||
| 20260504181956 | 0 | 0.0 | 0.0 | 0.00 | 0.11 | 0.03 | 1009.5 | ||
| 20260504181456 | 83 | 258 | 0.0 | 3.0 | 0.00 | 0.12 | 0.03 | 52 | 1009.7 |
| 20260504181216 | 83 | 234 | 0.0 | 3.0 | 0.00 | 0.12 | 0.03 | 52 | 1009.9 |
| 20260504181104 | 83 | 234 | 0.0 | 3.0 | 0.00 | 0.12 | 0.03 | 52 | 1009.9 |
| 20260504180453 | 83 | 175 | 0.0 | 0.0 | 0.00 | 0.12 | 0.03 | 53 | 1009.9 |
| 20260504175956 | 83 | 223 | 0.0 | 0.0 | 0.00 | 0.12 | 0.03 | 52 | 1009.8 |
| 20260504175449 | 82 | 237 | 0.0 | 0.0 | 0.00 | 0.12 | 0.03 | 53 | 1010.0 |
| 20260504174954 | 81 | 243 | 0.0 | 0.0 | 0.00 | 0.12 | 0.03 | 55 | 1010.0 |
| 20260504174718 | 81 | 255 | 0.0 | 5.0 | 0.00 | 0.12 | 0.03 | 56 | 1010.1 |
| 20260504174603 | 81 | 255 | 0.0 | 5.0 | 0.00 | 0.12 | 0.03 | 56 | 1010.1 |
| 20260504173957 | 80 | 288 | 0.0 | 5.0 | 0.00 | 0.12 | 0.03 | 56 | 1010.1 |
| 20260504173452 | 80 | 190 | 0.0 | 10.0 | 0.00 | 0.12 | 0.03 | 58 | 1010.2 |
| 20260504172955 | 80 | 142 | 2.0 | 10.0 | 0.00 | 0.13 | 0.03 | 54 | 1010.2 |
| 20260504172452 | 81 | 162 | 0.0 | 0.0 | 0.00 | 0.13 | 0.03 | 54 | 1010.4 |
| 20260504171956 | 81 | 165 | 0.0 | 0.0 | 0.00 | 0.13 | 0.03 | 54 | 1010.4 |
| 20260504171453 | 81 | 255 | 0.0 | 0.0 | 0.00 | 0.13 | 0.03 | 52 | 1010.6 |
| 20260504170950 | 81 | 144 | 0.0 | 0.0 | 0.00 | 0.13 | 0.03 | 55 | 1010.7 |
| 20260504170716 | 81 | 293 | 0.0 | 0.0 | 0.00 | 0.13 | 0.03 | 56 | 1010.6 |
| 20260504170600 | 81 | 293 | 0.0 | 0.0 | 0.00 | 0.13 | 0.03 | 56 | 1010.6 |
| 20260504150947 | 76 | 214 | 0.0 | 4.0 | 0.01 | 0.16 | 0.03 | 61 | 1011.5 |
| 20260504150711 | 76 | 148 | 0.0 | 4.0 | 0.01 | 0.16 | 0.03 | 61 | 1011.5 |
| 20260504150554 | 76 | 148 | 0.0 | 4.0 | 0.01 | 0.16 | 0.03 | 61 | 1011.5 |
| 20260504140944 | 72 | 240 | 0.0 | 1.0 | 0.00 | 0.16 | 0.02 | 66 | 1011.5 |
| 20260504140445 | 71 | 247 | 0.0 | 1.0 | 0.00 | 0.16 | 0.02 | 67 | 1011.5 |
| 20260504130444 | 60 | 245 | 0.0 | 0.0 | 0.00 | 0.17 | 0.02 | 82 | 1011.6 |
| 20260504130206 | 60 | 245 | 0.0 | 0.0 | 0.00 | 0.17 | 0.02 | 83 | 1011.6 |
| 20260504110441 | 59 | 245 | 0.0 | 0.0 | 0.00 | 0.18 | 0.01 | 85 | 1011.0 |
| 20260504100438 | 60 | 245 | 0.0 | 0.0 | 0.00 | 0.19 | 0.01 | 83 | 1011.2 |
| 20260504100222 | 60 | 245 | 0.0 | 0.0 | 0.00 | 0.19 | 0.01 | 83 | 1011.4 |
| 20260504081938 | 61 | 245 | 0.0 | 0.0 | 0.00 | 0.21 | 0.01 | 80 | 1011.9 |
| 20260504081435 | 61 | 245 | 0.0 | 0.0 | 0.01 | 0.21 | 0.01 | 80 | 1012.0 |
| 20260504081201 | 62 | 245 | 0.0 | 0.0 | 0.01 | 0.21 | 0.01 | 80 | 1012.0 |
| 20260504081047 | 62 | 245 | 0.0 | 0.0 | 0.01 | 0.21 | 0.01 | 80 | 1012.0 |
| 20260504080435 | 62 | 245 | 0.0 | 0.0 | 0.01 | 0.21 | 0.01 | 80 | 1012.2 |
| 20260504050433 | 65 | 245 | 0.0 | 0.0 | 0.01 | 0.24 | 0.00 | 68 | 1013.8 |
| 20260504045933 | 65 | 245 | 0.0 | 0.0 | 0.01 | 0.24 | 0.24 | 67 | 1013.7 |
| 20260504045433 | 65 | 245 | 0.0 | 0.0 | 0.01 | 0.24 | 0.24 | 67 | 1013.8 |
| 20260504044934 | 65 | 245 | 0.0 | 0.0 | 0.00 | 0.23 | 0.23 | 66 | 1013.9 |
| 20260504044426 | 66 | 245 | 0.0 | 0.0 | 0.00 | 0.23 | 0.23 | 66 | 1014.0 |
| 20260504043934 | 66 | 245 | 0.0 | 0.0 | 0.00 | 0.23 | 0.23 | 66 | 1013.9 |
| 20260504043431 | 66 | 245 | 0.0 | 0.0 | 0.00 | 0.23 | 0.23 | 66 | 1014.0 |
| 20260504042933 | 66 | 245 | 0.0 | 0.0 | 0.00 | 0.23 | 0.23 | 66 | 1013.9 |
| 20260504042432 | 66 | 245 | 0.0 | 0.0 | 0.00 | 0.24 | 0.23 | 64 | 1014.0 |
| 20260504041933 | 66 | 245 | 0.0 | 0.0 | 0.00 | 0.24 | 0.23 | 64 | 1013.9 |
| 20260504041444 | 67 | 245 | 0.0 | 0.0 | 0.00 | 0.24 | 0.23 | 64 | 1014.0 |
| 20260504040934 | 67 | 245 | 0.0 | 0.0 | 0.00 | 0.24 | 0.23 | 64 | 1014.0 |
| 20260504040431 | 67 | 245 | 0.0 | 0.0 | 0.00 | 0.24 | 0.23 | 64 | 1014.0 |
| 20260504040416 | 67 | 245 | 0.0 | 0.0 | 0.00 | 0.24 | 0.23 | 63 | 1014.0 |
| 20260504040038 | 67 | 245 | 0.0 | 0.0 | 0.00 | 0.24 | 0.23 | 63 | 1014.0 |
| 20260504035431 | 67 | 245 | 0.0 | 0.0 | 0.00 | 0.24 | 0.23 | 62 | 1013.9 |
| 20260504034931 | 68 | 245 | 0.0 | 0.0 | 0.00 | 0.24 | 0.23 | 61 | 1013.8 |